Time,TemperatureF,DewpointF,PressureIn,WindDirection,WindDirectionDegrees,WindSpeedMPH,WindSpeedGustMPH,Humidity,HourlyPrecipIn,Conditions,Clouds,dailyrainin,SoftwareType,DateUTC
2013-06-01 00:00:00,47.5,28.3,30.65,SW,227,0.0,0.0,47,0.00,,,0.00,WeatherCatV1.12B45,2013-06-01 07:00:00,
2013-06-01 00:05:00,47.3,28.1,30.65,SW,227,0.0,0.0,47,0.00,,,0.00,WeatherCatV1.12B45,2013-06-01 07:05:00,
2013-06-01 00:10:00,47.3,28.6,30.65,SW,227,0.0,0.0,48,0.00,,,0.00,WeatherCatV1.12B45,2013-06-01 07:10:00,
2013-06-01 00:15:00,47.3,28.6,30.65,SW,227,0.0,0.0,48,0.00,,,0.00,WeatherCatV1.12B45,2013-06-01 07:15:00,
2013-06-01 00:20:00,46.9,28.8,30.62,SW,227,0.0,0.0,49,0.00,,,0.00,WeatherCatV1.12B45,2013-06-01 07:20:00,
2013-06-01 00:25:00,46.6,28.5,30.62,SW,227,0.0,0.0,49,0.00,,,0.00,WeatherCatV1.12B45,2013-06-01 07:25:00,
2013-06-01 00:30:00,46.6,28.5,30.62,SW,227,0.0,0.0,49,0.00,,,0.00,WeatherCatV1.12B45,2013-06-01 07:30:00,
2013-06-01 00:35:00,46.4,28.3,30.62,SW,227,0.0,0.0,49,0.00,,,0.00,WeatherCatV1.12B45,2013-06-01 07:35:00,
2013-06-01 00:40:00,46.2,28.6,30.62,SW,227,0.0,0.0,50,0.00,,,0.00,WeatherCatV1.12B45,2013-06-01 07:40:00,
2013-06-01 00:45:00,46.2,29.1,30.62,SW,227,0.0,0.0,51,0.00,,,0.00,WeatherCatV1.12B45,2013-06-01 07:45:00,
2013-06-01 00:50:00,46.0,29.4,30.62,SW,227,0.0,0.0,52,0.00,,,0.00,WeatherCatV1.12B45,2013-06-01 07:50:00,
2013-06-01 00:55:00,46.0,28.9,30.62,SW,227,0.0,0.0,51,0.00,,,0.00,WeatherCatV1.12B45,2013-06-01 07:55:00,
2013-06-01 01:00:00,45.9,28.8,30.62,SSW,205,0.0,0.0,51,0.00,,,0.00,WeatherCatV1.12B45,2013-06-01 08:00:00,
2013-06-01 01:05:00,46.0,28.9,30.62,SSW,205,0.0,0.0,51,0.00,,,0.00,WeatherCatV1.12B45,2013-06-01 08:05:00,
2013-06-01 01:10:00,45.9,28.8,30.62,SSW,205,0.0,0.0,51,0.00,,,0.00,WeatherCatV1.12B45,2013-06-01 08:10:00,
2013-06-01 01:15:00,45.5,28.9,30.62,SSW,205,0.0,0.0,52,0.00,,,0.00,WeatherCatV1.12B45,2013-06-01 08:15:00,
2013-06-01 01:20:00,45.3,28.7,30.62,SSW,205,0.0,0.0,52,0.00,,,0.00,WeatherCatV1.12B45,2013-06-01 08:20:00,
2013-06-01 01:25:00,45.3,29.2,30.62,SSW,205,0.0,0.0,53,0.00,,,0.00,WeatherCatV1.12B45,2013-06-01 08:25:00,
2013-06-01 01:30:00,45.1,29.9,30.62,SSW,205,0.0,0.0,55,0.00,,,0.00,WeatherCatV1.12B45,2013-06-01 08:30:00,
2013-06-01 01:35:00,45.0,31.1,30.62,SSW,205,0.0,0.0,58,0.00,,,0.00,WeatherCatV1.12B45,2013-06-01 08:35:00,
2013-06-01 01:40:00,45.1,31.7,30.62,SSW,205,0.0,0.0,59,0.00,,,0.00,WeatherCatV1.12B45,2013-06-01 08:40:00,
2013-06-01 01:45:00,45.1,31.7,30.62,SSW,205,0.0,0.0,59,0.00,,,0.00,WeatherCatV1.12B45,2013-06-01 08:45:00,
2013-06-01 01:50:00,45.1,32.1,30.62,SSW,205,0.0,0.0,60,0.00,,,0.00,WeatherCatV1.12B45,2013-06-01 08:50:00,
2013-06-01 01:55:00,44.8,31.8,30.62,SSW,205,0.0,0.0,60,0.00,,,0.00,WeatherCatV1.12B45,2013-06-01 08:55:00,
2013-06-01 02:00:00,44.8,32.6,30.62,SSW,205,0.0,0.0,62,0.00,,,0.00,WeatherCatV1.12B45,2013-06-01 09:00:00,
2013-06-01 02:05:00,44.6,32.4,30.62,SSW,205,0.0,0.0,62,0.00,,,0.00,WeatherCatV1.12B45,2013-06-01 09:05:00,
2013-06-01 02:10:00,44.6,33.2,30.62,SSW,205,0.0,0.0,64,0.00,,,0.00,WeatherCatV1.12B45,2013-06-01 09:10:00,
2013-06-01 02:15:00,44.4,33.4,30.62,SSW,205,0.0,0.0,65,0.00,,,0.00,WeatherCatV1.12B45,2013-06-01 09:15:00,
2013-06-01 02:20:00,44.2,33.2,30.62,SSW,205,0.0,0.0,65,0.00,,,0.00,WeatherCatV1.12B45,2013-06-01 09:20:00,
2013-06-01 02:25:00,44.1,33.1,30.62,SSW,205,0.0,0.0,65,0.00,,,0.00,WeatherCatV1.12B45,2013-06-01 09:25:00,
2013-06-01 02:30:00,43.7,32.7,30.62,SSW,205,0.0,0.0,65,0.00,,,0.00,WeatherCatV1.12B45,2013-06-01 09:30:00,
2013-06-01 02:35:00,43.5,32.2,30.62,SSW,205,0.0,0.0,64,0.00,,,0.00,WeatherCatV1.12B45,2013-06-01 09:35:00,
2013-06-01 02:40:00,42.8,31.5,30.62,SSW,205,0.0,0.0,64,0.00,,,0.00,WeatherCatV1.12B45,2013-06-01 09:40:00,
2013-06-01 02:45:00,42.4,31.5,30.62,SSW,205,0.0,0.0,65,0.00,,,0.00,WeatherCatV1.12B45,2013-06-01 09:45:00,
2013-06-01 02:51:00,42.3,31.3,30.62,SSW,205,0.0,0.0,65,0.00,,,0.00,WeatherCatV1.12B45,2013-06-01 09:51:00,
2013-06-01 02:56:00,42.3,32.1,30.62,SSW,205,0.0,0.0,67,0.00,,,0.00,WeatherCatV1.12B45,2013-06-01 09:56:00,
2013-06-01 03:01:00,42.4,33.4,30.62,SSW,205,0.0,0.0,70,0.00,,,0.00,WeatherCatV1.12B45,2013-06-01 10:01:00,
2013-06-01 03:06:00,42.3,33.5,30.62,SSW,205,0.0,0.0,71,0.00,,,0.00,WeatherCatV1.12B45,2013-06-01 10:06:00,
2013-06-01 03:11:00,42.3,33.2,30.62,SSW,205,0.0,0.0,70,0.00,,,0.00,WeatherCatV1.12B45,2013-06-01 10:11:00,
2013-06-01 03:16:00,42.1,33.0,30.62,SSW,205,0.0,0.0,70,0.00,,,0.00,WeatherCatV1.12B45,2013-06-01 10:16:00,
2013-06-01 03:21:00,41.7,32.3,30.62,SSW,205,0.0,0.0,69,0.00,,,0.00,WeatherCatV1.12B45,2013-06-01 10:21:00,
2013-06-01 03:26:00,41.5,32.5,30.62,SSW,205,0.0,0.0,70,0.00,,,0.00,WeatherCatV1.12B45,2013-06-01 10:26:00,
2013-06-01 03:31:00,41.5,32.5,30.62,SSW,205,0.0,0.0,70,0.00,,,0.00,WeatherCatV1.12B45,2013-06-01 10:31:00,
2013-06-01 03:36:00,41.4,32.3,30.62,SSW,205,0.0,0.0,70,0.00,,,0.00,WeatherCatV1.12B45,2013-06-01 10:36:00,
2013-06-01 03:41:00,41.4,32.7,30.62,SSW,205,0.0,0.0,71,0.00,,,0.00,WeatherCatV1.12B45,2013-06-01 10:41:00,
2013-06-01 03:46:00,41.5,33.2,30.62,SSW,205,0.0,0.0,72,0.00,,,0.00,WeatherCatV1.12B45,2013-06-01 10:46:00,
2013-06-01 03:51:00,41.5,33.2,30.62,SSW,205,0.0,0.0,72,0.00,,,0.00,WeatherCatV1.12B45,2013-06-01 10:51:00,
2013-06-01 03:56:00,41.5,33.5,30.62,SSW,205,0.0,0.0,73,0.00,,,0.00,WeatherCatV1.12B45,2013-06-01 10:56:00,
2013-06-01 04:01:00,41.5,33.5,30.62,SSW,205,0.0,0.0,73,0.00,,,0.00,WeatherCatV1.12B45,2013-06-01 11:01:00,
2013-06-01 04:06:00,41.4,33.4,30.62,SSW,205,0.0,0.0,73,0.00,,,0.00,WeatherCatV1.12B45,2013-06-01 11:06:00,
2013-06-01 04:11:00,41.4,33.0,30.62,SSW,205,0.0,0.0,72,0.00,,,0.00,WeatherCatV1.12B45,2013-06-01 11:11:00,
2013-06-01 04:16:00,41.4,33.4,30.62,SSW,205,0.0,0.0,73,0.00,,,0.00,WeatherCatV1.12B45,2013-06-01 11:16:00,
2013-06-01 04:21:00,41.4,33.4,30.62,SSW,205,0.0,0.0,73,0.00,,,0.00,WeatherCatV1.12B45,2013-06-01 11:21:00,
2013-06-01 04:26:00,41.2,33.2,30.62,SSW,205,0.0,0.0,73,0.00,,,0.00,WeatherCatV1.12B45,2013-06-01 11:26:00,
2013-06-01 04:31:00,41.2,33.2,30.62,SSW,205,0.0,0.0,73,0.00,,,0.00,WeatherCatV1.12B45,2013-06-01 11:31:00,
2013-06-01 04:36:00,41.2,33.2,30.62,SSW,205,0.0,0.0,73,0.00,,,0.00,WeatherCatV1.12B45,2013-06-01 11:36:00,
2013-06-01 04:41:00,41.2,33.5,30.62,SSW,205,0.0,0.0,74,0.00,,,0.00,WeatherCatV1.12B45,2013-06-01 11:41:00,
2013-06-01 04:46:00,41.2,33.5,30.62,SSW,205,0.0,0.0,74,0.00,,,0.00,WeatherCatV1.12B45,2013-06-01 11:46:00,
2013-06-01 04:51:00,41.2,33.5,30.62,SSW,205,0.0,0.0,74,0.00,,,0.00,WeatherCatV1.12B45,2013-06-01 11:51:00,
2013-06-01 04:56:00,41.4,33.7,30.62,SSW,205,0.0,0.0,74,0.00,,,0.00,WeatherCatV1.12B45,2013-06-01 11:56:00,
2013-06-01 05:01:00,41.4,34.0,30.62,SSW,205,0.0,0.0,75,0.00,,,0.00,WeatherCatV1.12B45,2013-06-01 12:01:00,
2013-06-01 05:06:00,41.5,34.2,30.62,SSW,205,0.0,0.0,75,0.00,,,0.00,WeatherCatV1.12B45,2013-06-01 12:06:00,
2013-06-01 05:11:00,41.7,34.7,30.62,SSW,205,0.0,0.0,76,0.00,,,0.00,WeatherCatV1.12B45,2013-06-01 12:11:00,
2013-06-01 05:16:00,41.7,34.7,30.62,SSW,205,0.0,0.0,76,0.00,,,0.00,WeatherCatV1.12B45,2013-06-01 12:16:00,
2013-06-01 05:21:00,41.5,34.2,30.62,SSW,205,0.0,0.0,75,0.00,,,0.00,WeatherCatV1.12B45,2013-06-01 12:21:00,
2013-06-01 05:26:00,41.5,34.2,30.62,SSW,205,0.0,0.0,75,0.00,,,0.00,WeatherCatV1.12B45,2013-06-01 12:26:00,
2013-06-01 05:31:00,41.7,34.7,30.62,SSW,205,0.0,0.0,76,0.00,,,0.00,WeatherCatV1.12B45,2013-06-01 12:31:00,
2013-06-01 05:36:00,41.7,34.7,30.62,SSW,205,0.0,0.0,76,0.00,,,0.00,WeatherCatV1.12B45,2013-06-01 12:36:00,
2013-06-01 05:41:00,41.9,34.9,30.62,SSW,205,0.0,0.0,76,0.00,,,0.00,WeatherCatV1.12B45,2013-06-01 12:41:00,
2013-06-01 05:46:00,41.9,34.9,30.62,SSW,205,0.0,0.0,76,0.00,,,0.00,WeatherCatV1.12B45,2013-06-01 12:46:00,
2013-06-01 05:51:00,42.1,35.1,30.62,SSW,205,0.0,0.0,76,0.00,,,0.00,WeatherCatV1.12B45,2013-06-01 12:51:00,
2013-06-01 05:56:00,42.3,35.2,30.62,SSW,205,0.0,0.0,76,0.00,,,0.00,WeatherCatV1.12B45,2013-06-01 12:56:00,
2013-06-01 06:01:00,42.4,35.4,30.62,SSW,205,0.0,0.0,76,0.00,,,0.00,WeatherCatV1.12B45,2013-06-01 13:01:00,
2013-06-01 06:06:00,42.6,35.6,30.62,SSW,205,0.0,0.0,76,0.00,,,0.00,WeatherCatV1.12B45,2013-06-01 13:06:00,
2013-06-01 06:11:00,43.2,36.1,30.62,SSW,205,0.0,0.0,76,0.00,,,0.00,WeatherCatV1.12B45,2013-06-01 13:11:00,
2013-06-01 06:16:00,43.9,37.1,30.62,SSW,205,0.0,0.0,77,0.00,,,0.00,WeatherCatV1.12B45,2013-06-01 13:16:00,
2013-06-01 06:21:00,44.4,38.0,30.59,SSW,205,0.0,0.0,78,0.00,,,0.00,WeatherCatV1.12B45,2013-06-01 13:21:00,
2013-06-01 06:26:00,45.0,38.2,30.59,SSW,205,0.0,0.0,77,0.00,,,0.00,WeatherCatV1.12B45,2013-06-01 13:26:00,
2013-06-01 06:31:00,45.5,38.4,30.59,SSW,205,0.0,0.0,76,0.00,,,0.00,WeatherCatV1.12B45,2013-06-01 13:31:00,
2013-06-01 06:36:00,46.0,38.6,30.59,SSW,205,0.0,0.0,75,0.00,,,0.00,WeatherCatV1.12B45,2013-06-01 13:36:00,
2013-06-01 06:41:00,46.2,36.6,30.59,SSW,205,0.0,0.0,69,0.00,,,0.00,WeatherCatV1.12B45,2013-06-01 13:41:00,
2013-06-01 06:46:00,46.4,35.7,30.59,SSW,205,0.0,0.0,66,0.00,,,0.00,WeatherCatV1.12B45,2013-06-01 13:46:00,
2013-06-01 06:51:00,46.2,35.1,30.59,SSW,205,0.0,0.0,65,0.00,,,0.00,WeatherCatV1.12B45,2013-06-01 13:51:00,
2013-06-01 06:56:00,46.2,35.5,30.59,SSW,205,0.0,0.0,66,0.00,,,0.00,WeatherCatV1.12B45,2013-06-01 13:56:00,
2013-06-01 07:01:00,46.4,35.7,30.59,SSW,205,0.0,0.0,66,0.00,,,0.00,WeatherCatV1.12B45,2013-06-01 14:01:00,
2013-06-01 07:06:00,46.9,36.2,30.62,SSW,205,0.0,0.0,66,0.00,,,0.00,WeatherCatV1.12B45,2013-06-01 14:06:00,
2013-06-01 07:11:00,47.3,36.1,30.62,SSW,205,0.0,0.0,65,0.00,,,0.00,WeatherCatV1.12B45,2013-06-01 14:11:00,
2013-06-01 07:16:00,47.8,36.7,30.62,SSW,205,0.0,0.0,65,0.00,,,0.00,WeatherCatV1.12B45,2013-06-01 14:16:00,
2013-06-01 07:21:00,48.6,35.3,30.62,SSW,205,0.0,0.0,60,0.00,,,0.00,WeatherCatV1.12B45,2013-06-01 14:21:00,
2013-06-01 07:26:00,49.5,33.5,30.62,SSW,205,0.0,0.0,54,0.00,,,0.00,WeatherCatV1.12B45,2013-06-01 14:26:00,
2013-06-01 07:31:00,50.4,32.4,30.62,SSW,205,0.0,0.0,50,0.00,,,0.00,WeatherCatV1.12B45,2013-06-01 14:31:00,
2013-06-01 07:36:00,50.5,31.6,30.59,SSW,205,0.0,0.0,48,0.00,,,0.00,WeatherCatV1.12B45,2013-06-01 14:36:00,
2013-06-01 07:41:00,51.3,32.2,30.59,NE,51,3.1,3.1,48,0.00,,,0.00,WeatherCatV1.12B45,2013-06-01 14:41:00,
2013-06-01 07:46:00,51.6,31.5,30.59,NNE,21,0.0,3.6,46,0.00,,,0.00,WeatherCatV1.12B45,2013-06-01 14:46:00,
2013-06-01 07:51:00,51.8,31.7,30.59,NE,45,2.2,3.6,46,0.00,,,0.00,WeatherCatV1.12B45,2013-06-01 14:51:00,
2013-06-01 07:56:00,52.7,31.4,30.59,NE,45,0.0,0.0,44,0.00,,,0.00,WeatherCatV1.12B45,2013-06-01 14:56:00,
2013-06-01 08:01:00,52.9,31.6,30.59,NNE,32,0.0,0.0,44,0.00,,,0.00,WeatherCatV1.12B45,2013-06-01 15:01:00,
2013-06-01 08:06:00,53.1,32.8,30.59,NNE,31,0.0,0.0,46,0.00,,,0.00,WeatherCatV1.12B45,2013-06-01 15:06:00,
2013-06-01 08:11:00,53.1,31.7,30.59,NNE,31,0.0,0.0,44,0.00,,,0.00,WeatherCatV1.12B45,2013-06-01 15:11:00,
2013-06-01 08:16:00,53.1,31.7,30.59,NNE,32,0.0,0.0,44,0.00,,,0.00,WeatherCatV1.12B45,2013-06-01 15:16:00,
2013-06-01 08:21:00,53.4,32.1,30.59,NNE,32,0.0,0.0,44,0.00,,,0.00,WeatherCatV1.12B45,2013-06-01 15:21:00,
2013-06-01 08:26:00,53.8,31.8,30.59,NW,307,0.0,0.0,43,0.00,,,0.00,WeatherCatV1.12B45,2013-06-01 15:26:00,
2013-06-01 08:31:00,54.9,32.2,30.59,NW,307,0.0,0.0,42,0.00,,,0.00,WeatherCatV1.12B45,2013-06-01 15:31:00,
2013-06-01 08:36:00,57.4,33.3,30.59,NNW,329,0.0,0.0,40,0.00,,,0.00,WeatherCatV1.12B45,2013-06-01 15:36:00,
2013-06-01 08:41:00,62.2,35.0,30.59,NE,55,3.6,4.0,36,0.00,,,0.00,WeatherCatV1.12B45,2013-06-01 15:41:00,
2013-06-01 08:46:00,62.8,34.7,30.59,NNE,12,0.0,2.7,35,0.00,,,0.00,WeatherCatV1.12B45,2013-06-01 15:46:00,
2013-06-01 08:52:00,63.0,34.2,30.59,West,261,0.0,0.0,34,0.00,,,0.00,WeatherCatV1.12B45,2013-06-01 15:52:00,
2013-06-01 08:57:00,61.3,32.7,30.59,NE,54,3.6,4.0,34,0.00,,,0.00,WeatherCatV1.12B45,2013-06-01 15:57:00,
2013-06-01 09:02:00,60.6,32.8,30.62,NE,55,3.1,3.6,35,0.00,,,0.00,WeatherCatV1.12B45,2013-06-01 16:02:00,
2013-06-01 09:07:00,60.1,32.3,30.62,ESE,103,0.0,0.0,35,0.00,,,0.00,WeatherCatV1.12B45,2013-06-01 16:07:00,
2013-06-01 09:12:00,60.1,32.3,30.62,ESE,103,0.0,0.0,35,0.00,,,0.00,WeatherCatV1.12B45,2013-06-01 16:12:00,
2013-06-01 09:17:00,59.2,31.5,30.59,NE,51,0.0,2.7,35,0.00,,,0.00,WeatherCatV1.12B45,2013-06-01 16:17:00,
2013-06-01 09:22:00,59.0,31.4,30.59,NE,50,0.0,3.1,35,0.00,,,0.00,WeatherCatV1.12B45,2013-06-01 16:22:00,
2013-06-01 09:27:00,59.5,31.9,30.59,NNE,14,0.0,0.0,35,0.00,,,0.00,WeatherCatV1.12B45,2013-06-01 16:27:00,
2013-06-01 09:32:00,60.1,32.3,30.59,NNE,14,0.0,0.0,35,0.00,,,0.00,WeatherCatV1.12B45,2013-06-01 16:32:00,
2013-06-01 09:37:00,60.1,31.6,30.59,ENE,61,0.0,3.6,34,0.00,,,0.00,WeatherCatV1.12B45,2013-06-01 16:37:00,
2013-06-01 09:42:00,60.6,32.1,30.59,ENE,61,0.0,0.0,34,0.00,,,0.00,WeatherCatV1.12B45,2013-06-01 16:42:00,
2013-06-01 09:47:00,61.2,32.6,30.59,ENE,61,0.0,0.0,34,0.00,,,0.00,WeatherCatV1.12B45,2013-06-01 16:47:00,
2013-06-01 09:52:00,60.8,30.0,30.59,ENE,78,0.0,0.0,31,0.00,,,0.00,WeatherCatV1.12B45,2013-06-01 16:52:00,
2013-06-01 09:57:00,61.2,31.1,30.59,ENE,78,0.0,0.0,32,0.00,,,0.00,WeatherCatV1.12B45,2013-06-01 16:57:00,
2013-06-01 10:02:00,61.5,32.1,30.59,ENE,67,0.0,0.0,33,0.00,,,0.00,WeatherCatV1.12B45,2013-06-01 17:02:00,
2013-06-01 10:07:00,62.6,32.3,30.59,WNW,298,2.7,2.7,32,0.00,,,0.00,WeatherCatV1.12B45,2013-06-01 17:07:00,
2013-06-01 10:12:00,62.2,29.6,30.59,NW,311,0.0,2.7,29,0.00,,,0.00,WeatherCatV1.12B45,2013-06-01 17:12:00,
2013-06-01 10:17:00,62.2,29.6,30.59,NW,316,0.0,0.0,29,0.00,,,0.00,WeatherCatV1.12B45,2013-06-01 17:17:00,
2013-06-01 10:22:00,62.6,31.5,30.59,North,353,0.0,0.0,31,0.00,,,0.00,WeatherCatV1.12B45,2013-06-01 17:22:00,
2013-06-01 10:27:00,63.0,30.2,30.59,ENE,69,2.7,5.4,29,0.00,,,0.00,WeatherCatV1.12B45,2013-06-01 17:27:00,
2013-06-01 10:32:00,63.3,32.2,30.59,ENE,62,0.0,0.0,31,0.00,,,0.00,WeatherCatV1.12B45,2013-06-01 17:32:00,
2013-06-01 10:37:00,64.0,32.0,30.59,East,82,0.0,3.1,30,0.00,,,0.00,WeatherCatV1.12B45,2013-06-01 17:37:00,
2013-06-01 10:42:00,65.5,34.8,30.59,NE,43,0.0,0.0,32,0.00,,,0.00,WeatherCatV1.12B45,2013-06-01 17:42:00,
2013-06-01 10:47:00,66.6,31.5,30.56,NNE,16,0.0,3.1,27,0.00,,,0.00,WeatherCatV1.12B45,2013-06-01 17:47:00,
2013-06-01 10:52:00,67.3,32.2,30.56,SE,125,0.0,3.6,27,0.00,,,0.00,WeatherCatV1.12B45,2013-06-01 17:52:00,
2013-06-01 10:57:00,66.2,31.2,30.56,NE,41,2.7,4.9,27,0.00,,,0.00,WeatherCatV1.12B45,2013-06-01 17:57:00,
2013-06-01 11:02:00,66.0,32.0,30.56,NE,34,0.0,4.0,28,0.00,,,0.00,WeatherCatV1.12B45,2013-06-01 18:02:00,
2013-06-01 11:07:00,65.8,30.0,30.56,NNE,18,4.0,4.0,26,0.00,,,0.00,WeatherCatV1.12B45,2013-06-01 18:07:00,
2013-06-01 11:12:00,66.2,32.1,30.56,NNE,20,0.0,0.0,28,0.00,,,0.00,WeatherCatV1.12B45,2013-06-01 18:12:00,
2013-06-01 11:17:00,66.2,30.3,30.56,NNE,16,3.6,4.0,26,0.00,,,0.00,WeatherCatV1.12B45,2013-06-01 18:17:00,
2013-06-01 11:22:00,66.2,30.3,30.56,NE,46,0.0,4.0,26,0.00,,,0.00,WeatherCatV1.12B45,2013-06-01 18:22:00,
2013-06-01 11:27:00,66.4,30.5,30.56,NE,39,3.1,4.9,26,0.00,,,0.00,WeatherCatV1.12B45,2013-06-01 18:27:00,
2013-06-01 11:32:00,67.5,31.4,30.56,NW,317,0.0,0.0,26,0.00,,,0.00,WeatherCatV1.12B45,2013-06-01 18:32:00,
2013-06-01 11:37:00,67.8,30.7,30.56,SE,127,0.0,3.1,25,0.00,,,0.00,WeatherCatV1.12B45,2013-06-01 18:37:00,
2013-06-01 11:42:00,67.6,29.6,30.56,East,90,2.2,3.1,24,0.00,,,0.00,WeatherCatV1.12B45,2013-06-01 18:42:00,
2013-06-01 11:47:00,66.9,28.9,30.56,NNE,29,4.0,4.0,24,0.00,,,0.00,WeatherCatV1.12B45,2013-06-01 18:47:00,
2013-06-01 11:52:00,67.8,31.7,30.56,NNE,13,0.0,2.2,26,0.00,,,0.00,WeatherCatV1.12B45,2013-06-01 18:52:00,
2013-06-01 11:57:00,68.7,30.5,30.56,NNE,16,2.2,4.9,24,0.00,,,0.00,WeatherCatV1.12B45,2013-06-01 18:57:00,
2013-06-01 12:02:00,68.5,29.3,30.53,NNE,31,0.0,4.9,23,0.00,,,0.00,WeatherCatV1.12B45,2013-06-01 19:02:00,
2013-06-01 12:07:00,68.5,29.3,30.53,NE,36,2.7,5.8,23,0.00,,,0.00,WeatherCatV1.12B45,2013-06-01 19:07:00,
2013-06-01 12:12:00,69.1,29.7,30.53,NE,35,0.0,0.0,23,0.00,,,0.00,WeatherCatV1.12B45,2013-06-01 19:12:00,
2013-06-01 12:17:00,69.3,28.8,30.53,NE,35,0.0,0.0,22,0.00,,,0.00,WeatherCatV1.12B45,2013-06-01 19:17:00,
2013-06-01 12:22:00,69.6,29.1,30.53,NNE,12,3.6,4.0,22,0.00,,,0.00,WeatherCatV1.12B45,2013-06-01 19:22:00,
2013-06-01 12:27:00,69.4,28.9,30.53,ESE,111,0.0,0.0,22,0.00,,,0.00,WeatherCatV1.12B45,2013-06-01 19:27:00,
2013-06-01 12:32:00,70.0,29.4,30.53,NE,45,0.0,0.0,22,0.00,,,0.00,WeatherCatV1.12B45,2013-06-01 19:32:00,
2013-06-01 12:37:00,70.0,29.4,30.53,NNE,33,3.6,6.3,22,0.00,,,0.00,WeatherCatV1.12B45,2013-06-01 19:37:00,
2013-06-01 12:42:00,70.0,30.5,30.53,NNW,334,0.0,0.0,23,0.00,,,0.00,WeatherCatV1.12B45,2013-06-01 19:42:00,
2013-06-01 12:47:00,70.0,29.4,30.53,ENE,58,0.0,2.2,22,0.00,,,0.00,WeatherCatV1.12B45,2013-06-01 19:47:00,
2013-06-01 12:52:00,70.0,29.4,30.53,ENE,60,0.0,3.1,22,0.00,,,0.00,WeatherCatV1.12B45,2013-06-01 19:52:00,
2013-06-01 12:57:00,70.0,29.4,30.53,NE,43,4.0,4.0,22,0.00,,,0.00,WeatherCatV1.12B45,2013-06-01 19:57:00,
2013-06-01 13:02:00,69.8,29.2,30.53,NE,39,2.2,4.0,22,0.00,,,0.00,WeatherCatV1.12B45,2013-06-01 20:02:00,
2013-06-01 13:07:00,70.0,29.4,30.53,NE,35,3.6,4.0,22,0.00,,,0.00,WeatherCatV1.12B45,2013-06-01 20:07:00,
2013-06-01 13:12:00,69.6,29.1,30.53,NE,44,2.2,4.9,22,0.00,,,0.00,WeatherCatV1.12B45,2013-06-01 20:12:00,
2013-06-01 13:17:00,70.7,30.0,30.53,NNE,24,4.0,5.8,22,0.00,,,0.00,WeatherCatV1.12B45,2013-06-01 20:17:00,
2013-06-01 13:22:00,70.2,26.0,30.53,NE,51,2.7,3.6,19,0.00,,,0.00,WeatherCatV1.12B45,2013-06-01 20:22:00,
2013-06-01 13:27:00,70.2,26.0,30.53,NE,37,3.6,3.6,19,0.00,,,0.00,WeatherCatV1.12B45,2013-06-01 20:27:00,
2013-06-01 13:32:00,70.2,29.5,30.53,NE,37,0.0,0.0,22,0.00,,,0.00,WeatherCatV1.12B45,2013-06-01 20:32:00,
2013-06-01 13:37:00,69.8,29.2,30.53,NNE,15,0.0,0.0,22,0.00,,,0.00,WeatherCatV1.12B45,2013-06-01 20:37:00,
2013-06-01 13:42:00,69.1,28.6,30.53,East,88,0.0,0.0,22,0.00,,,0.00,WeatherCatV1.12B45,2013-06-01 20:42:00,
2013-06-01 13:47:00,68.9,28.5,30.53,North,5,0.0,4.9,22,0.00,,,0.00,WeatherCatV1.12B45,2013-06-01 20:47:00,
2013-06-01 13:52:00,68.7,28.3,30.53,NNE,29,0.0,0.0,22,0.00,,,0.00,WeatherCatV1.12B45,2013-06-01 20:52:00,
2013-06-01 13:57:00,68.7,28.3,30.53,East,81,0.0,0.0,22,0.00,,,0.00,WeatherCatV1.12B45,2013-06-01 20:57:00,
2013-06-01 14:02:00,69.1,29.7,30.50,SSE,159,0.0,0.0,23,0.00,,,0.00,WeatherCatV1.12B45,2013-06-01 21:02:00,
2013-06-01 14:07:00,68.9,29.6,30.50,NE,44,0.0,3.1,23,0.00,,,0.00,WeatherCatV1.12B45,2013-06-01 21:07:00,
2013-06-01 14:12:00,68.7,28.3,30.50,NNE,29,0.0,0.0,22,0.00,,,0.00,WeatherCatV1.12B45,2013-06-01 21:12:00,
2013-06-01 14:17:00,70.3,29.7,30.50,ESE,120,0.0,0.0,22,0.00,,,0.00,WeatherCatV1.12B45,2013-06-01 21:17:00,
2013-06-01 14:22:00,72.1,30.0,30.50,NE,37,2.7,3.1,21,0.00,,,0.00,WeatherCatV1.12B45,2013-06-01 21:22:00,
2013-06-01 14:27:00,73.9,31.5,30.50,NE,38,0.0,3.1,21,0.00,,,0.00,WeatherCatV1.12B45,2013-06-01 21:27:00,
2013-06-01 14:32:00,73.9,27.8,30.50,NE,51,3.1,5.8,18,0.00,,,0.00,WeatherCatV1.12B45,2013-06-01 21:32:00,
2013-06-01 14:37:00,75.6,24.7,30.50,North,9,4.0,4.5,15,0.00,,,0.00,WeatherCatV1.12B45,2013-06-01 21:37:00,
2013-06-01 14:42:00,75.9,24.9,30.50,SSE,150,2.7,5.4,15,0.00,,,0.00,WeatherCatV1.12B45,2013-06-01 21:42:00,
2013-06-01 14:47:00,74.3,25.2,30.50,West,265,2.7,3.1,16,0.00,,,0.00,WeatherCatV1.12B45,2013-06-01 21:47:00,
2013-06-01 14:52:00,72.0,23.3,30.50,ENE,61,2.2,6.3,16,0.00,,,0.00,WeatherCatV1.12B45,2013-06-01 21:52:00,
2013-06-01 14:57:00,72.1,23.5,30.50,SSW,209,0.0,0.0,16,0.00,,,0.00,WeatherCatV1.12B45,2013-06-01 21:57:00,
2013-06-01 15:02:00,73.9,20.0,30.47,NE,56,0.0,4.0,13,0.00,,,0.00,WeatherCatV1.12B45,2013-06-01 22:02:00,
2013-06-01 15:07:00,75.4,21.1,30.47,ENE,69,0.0,3.1,13,0.00,,,0.00,WeatherCatV1.12B45,2013-06-01 22:07:00,
2013-06-01 15:12:00,77.0,25.8,30.47,South,188,2.2,5.8,15,0.00,,,0.00,WeatherCatV1.12B45,2013-06-01 22:12:00,
2013-06-01 15:17:00,75.0,20.8,30.47,ENE,76,3.1,3.1,13,0.00,,,0.00,WeatherCatV1.12B45,2013-06-01 22:17:00,
2013-06-01 15:22:00,72.3,20.5,30.47,North,2,0.0,0.0,14,0.00,,,0.00,WeatherCatV1.12B45,2013-06-01 22:22:00,
2013-06-01 15:27:00,70.2,18.7,30.47,North,357,0.0,0.0,14,0.00,,,0.00,WeatherCatV1.12B45,2013-06-01 22:27:00,
2013-06-01 15:32:00,72.5,20.6,30.47,NNW,329,2.2,3.6,14,0.00,,,0.00,WeatherCatV1.12B45,2013-06-01 22:32:00,
2013-06-01 15:37:00,73.4,19.6,30.47,SSW,210,2.7,2.7,13,0.00,,,0.00,WeatherCatV1.12B45,2013-06-01 22:37:00,
2013-06-01 15:38:00,73.8,19.9,30.47,ENE,78,0.0,3.1,13,0.00,,,0.00,WeatherCatV1.12B45,2013-06-01 22:38:00,
2013-06-01 15:43:00,73.9,20.0,30.47,SW,225,2.7,4.0,13,0.00,,,0.00,WeatherCatV1.12B45,2013-06-01 22:43:00,
2013-06-01 15:48:00,75.9,21.5,30.47,SW,229,0.0,3.6,13,0.00,,,0.00,WeatherCatV1.12B45,2013-06-01 22:48:00,
2013-06-01 15:53:00,78.4,17.4,30.47,SSW,200,5.4,8.7,10,0.00,,,0.00,WeatherCatV1.12B45,2013-06-01 22:53:00,
2013-06-01 15:58:00,78.4,17.4,30.47,South,178,4.9,8.3,10,0.00,,,0.00,WeatherCatV1.12B45,2013-06-01 22:58:00,
2013-06-01 16:03:00,77.4,22.7,30.47,SSW,193,5.8,5.8,13,0.00,,,0.00,WeatherCatV1.12B45,2013-06-01 23:03:00,
2013-06-01 16:08:00,77.7,16.8,30.47,SE,140,0.0,4.9,10,0.00,,,0.00,WeatherCatV1.12B45,2013-06-01 23:08:00,
2013-06-01 16:13:00,76.8,16.1,30.47,NE,52,0.0,2.7,10,0.00,,,0.00,WeatherCatV1.12B45,2013-06-01 23:13:00,
2013-06-01 16:18:00,74.7,16.7,30.47,NE,55,3.1,3.6,11,0.00,,,0.00,WeatherCatV1.12B45,2013-06-01 23:18:00,
2013-06-01 16:23:00,72.5,15.0,30.47,ENE,73,2.2,4.0,11,0.00,,,0.00,WeatherCatV1.12B45,2013-06-01 23:23:00,
2013-06-01 16:28:00,72.3,20.5,30.47,South,182,2.2,3.1,14,0.00,,,0.00,WeatherCatV1.12B45,2013-06-01 23:28:00,
2013-06-01 16:33:00,73.4,15.7,30.47,South,177,2.7,4.0,11,0.00,,,0.00,WeatherCatV1.12B45,2013-06-01 23:33:00,
2013-06-01 16:38:00,73.6,15.8,30.47,South,178,2.7,6.3,11,0.00,,,0.00,WeatherCatV1.12B45,2013-06-01 23:38:00,
2013-06-01 16:43:00,73.9,16.1,30.47,SE,137,4.9,7.6,11,0.00,,,0.00,WeatherCatV1.12B45,2013-06-01 23:43:00,
2013-06-01 16:48:00,73.8,16.0,30.44,South,173,2.7,4.9,11,0.00,,,0.00,WeatherCatV1.12B45,2013-06-01 23:48:00,
2013-06-01 16:53:00,73.0,15.4,30.44,SE,130,4.9,7.6,11,0.00,,,0.00,WeatherCatV1.12B45,2013-06-01 23:53:00,
2013-06-01 16:58:00,71.6,14.3,30.44,ESE,121,3.1,3.6,11,0.00,,,0.00,WeatherCatV1.12B45,2013-06-01 23:58:00,
2013-06-01 17:03:00,70.5,15.5,30.44,SE,125,3.1,4.9,12,0.00,,,0.00,WeatherCatV1.12B45,2013-06-02 00:03:00,
2013-06-01 17:08:00,69.8,14.9,30.44,SE,125,0.0,0.0,12,0.00,,,0.00,WeatherCatV1.12B45,2013-06-02 00:08:00,
2013-06-01 17:13:00,69.3,14.5,30.44,SE,124,0.0,0.0,12,0.00,,,0.00,WeatherCatV1.12B45,2013-06-02 00:13:00,
2013-06-01 17:18:00,68.9,14.2,30.44,West,277,0.0,0.0,12,0.00,,,0.00,WeatherCatV1.12B45,2013-06-02 00:18:00,
2013-06-01 17:23:00,68.9,19.4,30.44,SSW,211,0.0,0.0,15,0.00,,,0.00,WeatherCatV1.12B45,2013-06-02 00:23:00,
2013-06-01 17:28:00,68.9,19.4,30.44,South,172,3.1,3.6,15,0.00,,,0.00,WeatherCatV1.12B45,2013-06-02 00:28:00,
2013-06-01 17:33:00,68.7,19.2,30.44,SW,236,2.2,3.1,15,0.00,,,0.00,WeatherCatV1.12B45,2013-06-02 00:33:00,
2013-06-01 17:38:00,68.7,19.2,30.44,SW,226,0.0,0.0,15,0.00,,,0.00,WeatherCatV1.12B45,2013-06-02 00:38:00,
2013-06-01 17:43:00,68.7,14.1,30.44,NW,319,0.0,0.0,12,0.00,,,0.00,WeatherCatV1.12B45,2013-06-02 00:43:00,
2013-06-01 17:48:00,68.7,19.2,30.44,South,183,3.6,3.6,15,0.00,,,0.00,WeatherCatV1.12B45,2013-06-02 00:48:00,
2013-06-01 17:53:00,68.5,19.1,30.44,South,183,0.0,0.0,15,0.00,,,0.00,WeatherCatV1.12B45,2013-06-02 00:53:00,
2013-06-01 17:58:00,68.4,13.8,30.44,West,279,0.0,2.2,12,0.00,,,0.00,WeatherCatV1.12B45,2013-06-02 00:58:00,
2013-06-01 18:03:00,68.2,13.7,30.44,SW,226,0.0,0.0,12,0.00,,,0.00,WeatherCatV1.12B45,2013-06-02 01:03:00,
2013-06-01 18:08:00,68.0,13.5,30.44,SSW,210,0.0,0.0,12,0.00,,,0.00,WeatherCatV1.12B45,2013-06-02 01:08:00,
2013-06-01 18:13:00,67.8,13.4,30.44,SE,126,0.0,0.0,12,0.00,,,0.00,WeatherCatV1.12B45,2013-06-02 01:13:00,
2013-06-01 18:18:00,67.6,13.2,30.44,SE,126,0.0,0.0,12,0.00,,,0.00,WeatherCatV1.12B45,2013-06-02 01:18:00,
2013-06-01 18:23:00,67.5,18.2,30.44,SW,214,0.0,0.0,15,0.00,,,0.00,WeatherCatV1.12B45,2013-06-02 01:23:00,
2013-06-01 18:28:00,67.5,18.2,30.44,SW,230,0.0,3.1,15,0.00,,,0.00,WeatherCatV1.12B45,2013-06-02 01:28:00,
2013-06-01 18:33:00,67.5,18.2,30.44,SW,231,0.0,0.0,15,0.00,,,0.00,WeatherCatV1.12B45,2013-06-02 01:33:00,
2013-06-01 18:38:00,67.3,18.1,30.44,WSW,243,0.0,0.0,15,0.00,,,0.00,WeatherCatV1.12B45,2013-06-02 01:38:00,
2013-06-01 18:43:00,67.1,17.9,30.44,WSW,243,0.0,0.0,15,0.00,,,0.00,WeatherCatV1.12B45,2013-06-02 01:43:00,
2013-06-01 18:48:00,66.9,17.8,30.41,WSW,250,0.0,0.0,15,0.00,,,0.00,WeatherCatV1.12B45,2013-06-02 01:48:00,
2013-06-01 18:53:00,66.7,17.6,30.41,SW,214,0.0,0.0,15,0.00,,,0.00,WeatherCatV1.12B45,2013-06-02 01:53:00,
2013-06-01 18:58:00,66.7,17.6,30.41,SSW,195,2.2,4.9,15,0.00,,,0.00,WeatherCatV1.12B45,2013-06-02 01:58:00,
2013-06-01 19:03:00,66.4,17.3,30.44,SSW,200,0.0,0.0,15,0.00,,,0.00,WeatherCatV1.12B45,2013-06-02 02:03:00,
2013-06-01 19:09:00,66.0,17.1,30.44,SW,224,0.0,2.2,15,0.00,,,0.00,WeatherCatV1.12B45,2013-06-02 02:09:00,
2013-06-01 19:14:00,65.7,21.0,30.44,SW,224,0.0,0.0,18,0.00,,,0.00,WeatherCatV1.12B45,2013-06-02 02:14:00,
2013-06-01 19:19:00,65.5,20.9,30.41,SW,224,0.0,0.0,18,0.00,,,0.00,WeatherCatV1.12B45,2013-06-02 02:19:00,
2013-06-01 19:24:00,65.1,20.6,30.41,SSW,202,0.0,2.2,18,0.00,,,0.00,WeatherCatV1.12B45,2013-06-02 02:24:00,
2013-06-01 19:29:00,64.8,26.1,30.41,SSW,203,0.0,0.0,23,0.00,,,0.00,WeatherCatV1.12B45,2013-06-02 02:29:00,
2013-06-01 19:34:00,64.4,25.8,30.41,SSW,206,0.0,0.0,23,0.00,,,0.00,WeatherCatV1.12B45,2013-06-02 02:34:00,
2013-06-01 19:39:00,63.9,26.4,30.41,South,189,0.0,0.0,24,0.00,,,0.00,WeatherCatV1.12B45,2013-06-02 02:39:00,
2013-06-01 19:44:00,63.9,25.3,30.41,ENE,59,2.2,5.8,23,0.00,,,0.00,WeatherCatV1.12B45,2013-06-02 02:44:00,
2013-06-01 19:49:00,63.9,25.3,30.41,South,187,3.6,6.7,23,0.00,,,0.00,WeatherCatV1.12B45,2013-06-02 02:49:00,
2013-06-01 19:54:00,63.7,25.2,30.41,South,177,4.0,4.0,23,0.00,,,0.00,WeatherCatV1.12B45,2013-06-02 02:54:00,
2013-06-01 19:59:00,63.5,25.0,30.41,South,173,3.6,3.6,23,0.00,,,0.00,WeatherCatV1.12B45,2013-06-02 02:59:00,
2013-06-01 20:04:00,63.7,25.2,30.41,South,190,2.2,2.7,23,0.00,,,0.00,WeatherCatV1.12B45,2013-06-02 03:04:00,
2013-06-01 20:09:00,63.5,25.0,30.41,SSW,194,0.0,0.0,23,0.00,,,0.00,WeatherCatV1.12B45,2013-06-02 03:09:00,
2013-06-01 20:14:00,63.3,25.9,30.41,South,185,3.1,4.5,24,0.00,,,0.00,WeatherCatV1.12B45,2013-06-02 03:14:00,
2013-06-01 20:19:00,63.1,25.8,30.41,South,182,2.2,5.4,24,0.00,,,0.00,WeatherCatV1.12B45,2013-06-02 03:19:00,
2013-06-01 20:24:00,63.0,25.6,30.41,SSW,198,0.0,0.0,24,0.00,,,0.00,WeatherCatV1.12B45,2013-06-02 03:24:00,
2013-06-01 20:29:00,62.6,25.3,30.41,South,186,2.7,2.7,24,0.00,,,0.00,WeatherCatV1.12B45,2013-06-02 03:29:00,
2013-06-01 20:34:00,62.1,25.8,30.41,South,176,0.0,2.7,25,0.00,,,0.00,WeatherCatV1.12B45,2013-06-02 03:34:00,
2013-06-01 20:39:00,61.7,25.5,30.41,South,176,0.0,0.0,25,0.00,,,0.00,WeatherCatV1.12B45,2013-06-02 03:39:00,
2013-06-01 20:44:00,61.3,26.2,30.41,SSW,201,0.0,0.0,26,0.00,,,0.00,WeatherCatV1.12B45,2013-06-02 03:44:00,
2013-06-01 20:49:00,60.8,24.8,30.41,SW,226,3.1,3.1,25,0.00,,,0.00,WeatherCatV1.12B45,2013-06-02 03:49:00,
2013-06-01 20:54:00,60.4,25.4,30.41,SSW,197,2.2,4.0,26,0.00,,,0.00,WeatherCatV1.12B45,2013-06-02 03:54:00,
2013-06-01 20:59:00,60.4,25.4,30.41,SW,225,2.7,2.7,26,0.00,,,0.00,WeatherCatV1.12B45,2013-06-02 03:59:00,
2013-06-01 21:01:00,60.3,25.2,30.41,SW,219,2.7,3.1,26,0.00,,,0.00,WeatherCatV1.12B45,2013-06-02 04:01:00,
2013-06-01 21:06:00,59.7,25.7,30.41,SSW,210,2.2,2.7,27,0.00,,,0.00,WeatherCatV1.12B45,2013-06-02 04:06:00,
2013-06-01 21:11:00,59.2,26.1,30.41,SW,227,2.2,3.1,28,0.00,,,0.00,WeatherCatV1.12B45,2013-06-02 04:11:00,
2013-06-01 21:16:00,58.8,26.6,30.41,SW,230,0.0,4.0,29,0.00,,,0.00,WeatherCatV1.12B45,2013-06-02 04:16:00,
2013-06-01 21:21:00,58.3,27.8,30.41,SSW,211,0.0,2.7,31,0.00,,,0.00,WeatherCatV1.12B45,2013-06-02 04:21:00,
2013-06-01 21:26:00,57.9,27.5,30.41,SW,224,0.0,0.0,31,0.00,,,0.00,WeatherCatV1.12B45,2013-06-02 04:26:00,
2013-06-01 21:31:00,57.9,26.7,30.41,SW,232,0.0,0.0,30,0.00,,,0.00,WeatherCatV1.12B45,2013-06-02 04:31:00,
2013-06-01 21:36:00,58.1,27.6,30.41,SW,225,2.7,3.1,31,0.00,,,0.00,WeatherCatV1.12B45,2013-06-02 04:36:00,
2013-06-01 21:41:00,57.9,28.2,30.41,SW,226,0.0,2.7,32,0.00,,,0.00,WeatherCatV1.12B45,2013-06-02 04:41:00,
2013-06-01 21:46:00,57.7,28.8,30.41,SW,226,0.0,0.0,33,0.00,,,0.00,WeatherCatV1.12B45,2013-06-02 04:46:00,
2013-06-01 21:51:00,57.4,27.8,30.41,SW,229,0.0,5.4,32,0.00,,,0.00,WeatherCatV1.12B45,2013-06-02 04:51:00,
2013-06-01 21:56:00,57.4,27.8,30.41,SW,229,0.0,0.0,32,0.00,,,0.00,WeatherCatV1.12B45,2013-06-02 04:56:00,
2013-06-01 22:01:00,57.2,28.4,30.41,WSW,244,0.0,0.0,33,0.00,,,0.00,WeatherCatV1.12B45,2013-06-02 05:01:00,
2013-06-01 22:06:00,57.0,28.9,30.41,SW,220,2.7,3.1,34,0.00,,,0.00,WeatherCatV1.12B45,2013-06-02 05:06:00,
2013-06-01 22:11:00,57.2,28.4,30.41,SW,233,2.7,3.6,33,0.00,,,0.00,WeatherCatV1.12B45,2013-06-02 05:11:00,
2013-06-01 22:16:00,57.4,28.5,30.41,SW,225,2.2,5.4,33,0.00,,,0.00,WeatherCatV1.12B45,2013-06-02 05:16:00,
2013-06-01 22:21:00,57.6,28.7,30.41,SSW,210,3.1,3.6,33,0.00,,,0.00,WeatherCatV1.12B45,2013-06-02 05:21:00,
2013-06-01 22:26:00,57.6,28.7,30.41,WSW,242,3.1,3.1,33,0.00,,,0.00,WeatherCatV1.12B45,2013-06-02 05:26:00,
2013-06-01 22:31:00,57.2,29.1,30.41,SW,226,2.7,3.6,34,0.00,,,0.00,WeatherCatV1.12B45,2013-06-02 05:31:00,
2013-06-01 22:36:00,56.8,29.5,30.41,SW,227,0.0,0.0,35,0.00,,,0.00,WeatherCatV1.12B45,2013-06-02 05:36:00,
2013-06-01 22:41:00,56.5,29.2,30.41,WSW,253,2.7,4.0,35,0.00,,,0.00,WeatherCatV1.12B45,2013-06-02 05:41:00,
2013-06-01 22:46:00,56.3,29.0,30.41,SW,226,2.7,4.0,35,0.00,,,0.00,WeatherCatV1.12B45,2013-06-02 05:46:00,
2013-06-01 22:51:00,56.1,28.8,30.41,SSW,199,0.0,0.0,35,0.00,,,0.00,WeatherCatV1.12B45,2013-06-02 05:51:00,
2013-06-01 22:56:00,55.6,29.1,30.41,SSW,199,0.0,0.0,36,0.00,,,0.00,WeatherCatV1.12B45,2013-06-02 05:56:00,
2013-06-01 23:01:00,55.0,29.2,30.41,SSW,199,0.0,0.0,37,0.00,,,0.00,WeatherCatV1.12B45,2013-06-02 06:01:00,
2013-06-01 23:06:00,54.5,29.4,30.41,SSW,199,0.0,0.0,38,0.00,,,0.00,WeatherCatV1.12B45,2013-06-02 06:06:00,
2013-06-01 23:11:00,53.8,29.4,30.41,SSW,199,0.0,0.0,39,0.00,,,0.00,WeatherCatV1.12B45,2013-06-02 06:11:00,
2013-06-01 23:16:00,53.2,30.2,30.41,SSW,200,0.0,0.0,41,0.00,,,0.00,WeatherCatV1.12B45,2013-06-02 06:16:00,
2013-06-01 23:21:00,52.9,31.0,30.41,SSW,200,0.0,0.0,43,0.00,,,0.00,WeatherCatV1.12B45,2013-06-02 06:21:00,
2013-06-01 23:26:00,52.7,30.8,30.41,SSW,201,0.0,0.0,43,0.00,,,0.00,WeatherCatV1.12B45,2013-06-02 06:26:00,
2013-06-01 23:31:00,52.3,31.1,30.41,SSW,201,0.0,0.0,44,0.00,,,0.00,WeatherCatV1.12B45,2013-06-02 06:31:00,
2013-06-01 23:36:00,52.3,31.1,30.41,SSW,201,0.0,0.0,44,0.00,,,0.00,WeatherCatV1.12B45,2013-06-02 06:36:00,
2013-06-01 23:41:00,52.0,30.8,30.41,SSW,201,0.0,0.0,44,0.00,,,0.00,WeatherCatV1.12B45,2013-06-02 06:41:00,
2013-06-01 23:46:00,51.8,31.7,30.41,SSW,201,0.0,0.0,46,0.00,,,0.00,WeatherCatV1.12B45,2013-06-02 06:46:00,
2013-06-01 23:51:00,51.4,31.9,30.38,SSW,203,0.0,0.0,47,0.00,,,0.00,WeatherCatV1.12B45,2013-06-02 06:51:00,
2013-06-01 23:56:00,51.3,31.7,30.38,SSW,203,0.0,0.0,47,0.00,,,0.00,WeatherCatV1.12B45,2013-06-02 06:56:00,